Location: G�ndlingen
(48.0142°N, 7.6396°E)
Time: 17:58:33
(UTC+00:00)

ALOS 2 - Pass Details

Date: 05 July 2020
Orbit: 630 x 632 km, 97.9° (Epoch: 13 August)

Event Time Altitude Azimuth Distance (km) Brightness Sun altitude
Exits shadow 23:35:17 29° 232° (SW) 1,157 3.6 -19.3°
Maximum altitude 23:36:26 34° 263° (W) 1,047 3.6 -19.3°
Drops below altitude 10° 23:40:28 10° 329° (NNW) 2,025 6.0 -19.3°
Sets 23:42:51 0° 339° (NNW) 2,938 7.2 -19.3°
